STARLINK-1657 (46354 NORAD) Tracking and Keplerian Element Data

This shows tracking and keplerian element data for the satellite.

Feedback or suggestion? Click here.




ElementValue
Catalog46354
NameSTARLINK-1657
Epoch Orbit178
Epoch Day268.91668981
Epoch Year2020
RAAN324.5243
Inclination53.0004
Eccentricity0.0001386
Argument of Perigee58.3949
Mean Anonmoly131.3728
Mean Motion15.62809119
Decay Rate-0.00069456
L11 46354U 20062AF 20268.91668981 -.00069456 00000-0 -75750-3 0 9997
L22 46354 53.0004 324.5243 0001386 58.3949 131.3728 15.62809119 1788

Live tracking and technical data element details for STARLINK-1657 (NORAD 46354). STARLINK-1657 can be tracked NOW for your location showing map with azimuth and elevation plus other details from your city location.

Track the satellite on the map from your city or location and see movement details for azimuth, elevation, latitude, longitude, range, height, and movement on the map or in text.







IsCatalogInMostPopularTable: catalog: 46354, numindb: 3
Update: records affected: 1



GetName: 46354 STARLINK-1657

Hit Count: updated at: Sat, 26 Sep 2020 13:57:03 GMT